OpenBCM V1.08-5-g2f4a (Linux)

Packet Radio Mailbox

IZ3LSV

[San Dona' di P. JN]

 Login: GUEST





  
I0OJJ  > KEPS     10.05.25 02:44l 364 Lines 17239 Bytes #51 (0) @ AMSAT
BID : ORB25130.1
Read: GUEST
Subj: 2Line Orbital Elements 25130.AMSAT
Path: IZ3LSV<IK6IHL<IK7NXU<HB9ON<DK0WUE<PD0LPM<PI8ZTM<PI8LAP<VE2PKT<VE3CGR<
      IR0AAB<I0OJJ<I0OJJ
Sent: 250510/0025z @:I0OJJ.ITA.EU [Rome] obcm1.08-6-g5b69

>From i0ojj%i0ojj.ita.eu@i0ojj.ampr.org Sat May 10 02:25:06 2025
Received: from i0ojj.ampr.org by i0ojj.ampr.org (JNOS2.0p.8) with SMTP
	id AA17031609 ; Sat, 10 May 2025 02:25:06 +0200
Message-Id: <ORB25130.1@i0ojj.bbs>
>From: i0ojj@i0ojj.ita.eu
X-JNOS-User-Port: Telnet   (i0ojj @ 44.134.109.10)  -> Sending message

From: I0OJJ @ I0OJJ.ITA.EU (Gustavo)
To:   KEPS @ AMSAT
X-Info: This message was generated automatically


QST de W1STR

AMSAT Orbital Elements for Amateur Satellites in TLE Format
>From Orbital Analysis Office
New England Sci-Tech STEM Education Center
Natick, MA May 10, 2025
To all radio amateurs


These element sets describe the orbits of various satellites 
in use by the amateur radio community. For details see:
www.amsat.org/keplerian-elements-formats/

A daily update of element sets is available at:
www.amsat.org/tle/daily-bulletin.txt
or without bulletin text:
www.amsat.org/tle/dailytle.txt


AO-07
1 07530U 74089B   25129.53727637 -.00000030  00000-0  10469-3 0  9999
2 07530 101.9940 133.4702 0012227 179.5222 299.5934 12.53688937310178
UO-11
1 14781U 84021B   25129.83030624  .00001705  00000-0  18555-3 0  9991
2 14781  97.7523  96.8141 0009492  80.0514 280.1774 14.89293732218061
AO-27
1 22825U 93061C   25129.72783033  .00000144  00000-0  72079-4 0  9998
2 22825  98.7384 191.1262 0008096 195.7420 164.3512 14.30788592649573
FO-29
1 24278U 96046B   25129.33050247  .00000030  00000-0  64486-4 0  9996
2 24278  98.5795  27.3311 0350915  63.6342 300.0379 13.53246718418793
NOAA-15
1 25338U 98030A   25129.81912360  .00000263  00000-0  12575-3 0  9994
2 25338  98.5372 155.6878 0011521  90.3323 269.9178 14.26961663404012
GO-32
1 25397U 98043D   25129.50139242  .00000108  00000-0  67022-4 0  9995
2 25397  98.9688 107.9754 0000673 357.3837   2.7338 14.24306995394081
ISS
1 25544U 98067A   25129.52987991  .00008832  00000-0  16579-3 0  9991
2 25544  51.6373 138.5518 0002579  96.2220  12.6743 15.49431663509168
NO-44
1 26931U 01043C   25129.48977281  .00000189  00000-0  10166-3 0  9999
2 26931  67.0507 208.2226 0005762 273.2299  86.8144 14.31719392232811
SO-50
1 27607U 02058C   25129.77323597  .00001414  00000-0  19414-3 0  9991
2 27607  64.5527 295.6217 0052609 341.1475  18.7680 14.81543481204872
CO-55
1 27844U 03031E   25128.99012880  .00000453  00000-0  21661-3 0  9998
2 27844  98.6768 137.6707 0008365 280.6811  79.3426 14.23971410134146
CO-57
1 27848U 03031J   25129.48620976  .00000357  00000-0  17700-3 0  9990
2 27848  98.6794 138.1893 0008349 298.4517  61.5820 14.23309825133991
RS-22
1 27939U 03042A   25129.89258219  .00001452  00000-0  23807-3 0  9997
2 27939  98.3259 298.6088 0012701 106.2054 359.8125 14.72273833156317
NOAA-18
1 28654U 05018A   25129.83244208  .00000251  00000-0  15663-3 0  9991
2 28654  98.8420 209.6540 0013722 212.6273 147.4053 14.13594335 29409
CO-58
1 28895U 05043F   25128.95539203  .00002230  00000-0  37213-3 0  9994
2 28895  98.2448 272.9209 0015387  51.3051 308.9528 14.70908449 42297
CO-65
1 32785U 08021C   25129.80709524  .00006790  00000-0  49398-3 0  9998
2 32785  97.7816 100.7532 0008930 324.3261  35.7367 15.04111336924522
AAUSAT2
1 32788U 08021F   25129.49548763  .00670508  18543-3  19568-2 0  9995
2 32788  97.5921 127.6201 0008578 148.2115 211.9678 15.92772047928593
CO-66
1 32791U 08021J   25129.46554565  .00012787  00000-0  63263-3 0  9990
2 32791  97.7260 108.8345 0001355 285.5878  74.5206 15.17950839925852
RS-30
1 32953U 08025A   25129.81995689  .00000009  00000-0 -91820-5 0  9996
2 32953  82.5028 246.3037 0020537 113.0320 247.2928 12.43163798769719
NOAA-19
1 33591U 09005A   25129.83391694  .00000231  00000-0  14715-3 0  9994
2 33591  98.9987 194.3635 0014856  91.5830 268.7044 14.13358518837765
SRMSAT
1 37841U 11058D   25129.01306825  .00000488  00000-0  12156-3 0  9990
2 37841  19.9734 345.5722 0011790  77.9162  75.5315 14.11425749700647
ZACUBE-1
1 39417U 13066B   25129.42748591  .00006256  00000-0  54647-3 0  9997
2 39417  97.7776  86.6179 0045375 153.6441 206.7103 14.96349114620250
Delfi-N3xt
1 39428U 13066N   25129.76590501  .00007387  00000-0  75745-3 0  9990
2 39428  97.8363  47.7724 0087374 101.6928 259.4109 14.87895833614671
GOMX-1
1 39430U 13066Q   25129.80445077  .00001863  00000-0  29678-3 0  9992
2 39430  97.6872 350.3540 0131337 291.2572  67.4650 14.67527322610897
LO-74
1 39440U 13066AA  25129.24512975  .00005089  00000-0  51946-3 0  9990
2 39440  97.8475  74.0307 0060556 284.0093  75.4397 14.89717684616778
AO-73
1 39444U 13066AE  25128.83814909  .00008773  00000-0  66356-3 0  9994
2 39444  97.7795  90.6425 0042497 132.5480 227.9345 15.01851310618827
DTUSAT-2
1 40030U 14033W   25128.84010517  .00008179  00000-0  53783-3 0  9996
2 40030  98.0534  99.1397 0009989 155.2127 204.9581 15.07826160591611
EO-80
1 40032U 14033Y   25129.45931296  .00009277  00000-0  60790-3 0  9998
2 40032  98.0413  99.4861 0010492 102.8407 257.3993 15.07905709592200
LILACSAT-2
1 40908U 15049K   25129.84648358  .00012682  00000-0  33891-3 0  9991
2 40908  97.5078 149.4643 0007298 268.5015  91.5394 15.38199068533500
IO-86
1 40931U 15052B   25038.81889873  .00001817  00000-0  15548-3 0  9993
2 40931   6.0001 108.1159 0012838 187.7041 172.2889 14.78568669506492
Horyu-4
1 41340U 16012D   25128.96581628  .00025936  00000-0  72387-3 0  9990
2 41340  30.9974 344.3247 0007206  77.7028 282.4424 15.35490960507920
Lapan A3
1 41603U 16040E   25129.88756429  .00004181  00000-0  14782-3 0  9992
2 41603  97.1373 135.7038 0011795  28.7936 331.3953 15.29645036493094
CAS-2T
1 41847U 16066G   25129.76473032  .00000878  00000-0  13546-3 0  9999
2 41847  98.4206 204.4932 0345168 271.7405  84.4288 14.43398248446578
CAS-4B
1 42759U 17034B   25129.50682512  .00055026  00000-0  67104-3 0  9999
2 42759  43.0066 146.5462 0017922  72.1633 288.1184 15.59472364437742
CAS-4A
1 42761U 17034D   25129.49867756  .00058359  00000-0  68338-3 0  9997
2 42761  43.0102 144.0526 0019125  76.9235 283.3762 15.60482306437767
TechnoSat
1 42829U 17042E   25129.52479830  .00003395  00000-0  26599-3 0  9990
2 42829  97.3927 299.7208 0014782  31.2871 328.9231 15.01540713426068
AO-91
1 43017U 17073E   25129.06692775  .00008563  00000-0  44525-3 0  9999
2 43017  97.5288   0.6410 0172749 274.0100  84.1396 15.04242701404477
S-Net D
1 43186U 18014G   25129.71879546  .00005322  00000-0  31770-3 0  9995
2 43186  97.5659  32.9430 0008425 343.7480  16.3479 15.11519090397713
S-Net B
1 43187U 18014H   25129.26038451  .00006271  00000-0  37381-3 0  9996
2 43187  97.5666  32.4597 0009051 339.2211  20.8650 15.11497026397646
S-Net A
1 43188U 18014J   25129.71928098  .00005324  00000-0  31774-3 0  9990
2 43188  97.5672  33.0595 0008857 338.7070  21.3790 15.11524549397719
S-Net C
1 43189U 18014K   25129.26270611  .00006298  00000-0  37534-3 0  9993
2 43189  97.5693  32.6166 0010191 330.2462  29.8187 15.11494127396190
Ten-Koh
1 43677U 18084G   25129.45376047  .00002941  00000-0  23893-3 0  9997
2 43677  98.0893 300.4746 0006871  30.3164 329.8454 15.00432155355575
PO-101
1 43678U 18084H   25129.80075956  .00002217  00000-0  19210-3 0  9996
2 43678  98.1011 304.7577 0008712  32.5930 327.5828 14.98188779355777
QO-100
1 43700U 18090A   25129.89211508  .00000154  00000-0  00000+0 0  9994
2 43700   0.0012 339.9824 0002264 106.7484 128.1645  1.00273622 23871
MinXSS-2
1 43758U 18099A   25129.16703050  .00018162  00000-0  73448-3 0  9992
2 43758  97.5041 195.1212 0010561 261.8965  98.1074 15.24729194352188
AO-95
1 43770U 18099N   25129.71183703  .00010170  00000-0  52205-3 0  9993
2 43770  97.4939 188.1478 0009379 324.9937  35.0679 15.16672600351874
RANGE-A
1 43773U 18099R   25129.69859725  .00004932  00000-0  31728-3 0  9993
2 43773  97.4505 178.9976 0009836 301.3932  58.6334 15.08799893351568
MOVE-II
1 43780U 18099Y   25128.46583439  .00158207  00000-0  16402-2 0  9997
2 43780  97.4678 201.9447 0005715 220.7479 139.3353 15.64144802352766
SNUSat 2
1 43782U 18099AA  25129.68305806  .00008259  00000-0  45600-3 0  9998
2 43782  97.4628 185.1199 0010524 257.1570 102.8486 15.14136670351827
SnugLite
1 43784U 18099AC  25129.68275422  .00009735  00000-0  49589-3 0  9990
2 43784  97.4441 184.6200 0002034 242.8818 117.2208 15.16987091351951
ITASat 1
1 43786U 18099AE  25129.12574501  .00006822  00000-0  39435-3 0  9994
2 43786  97.4591 184.1740 0013059 319.6558  40.3703 15.12533673351704
EAGLET 1
1 43790U 18099AJ  25129.71422601  .00004398  00000-0  28346-3 0  9992
2 43790  97.4786 184.8048 0010613 298.1653  61.8503 15.08786775351415
ESEO
1 43792U 18099AL  25129.16851182  .00001620  00000-0  12632-3 0  9999
2 43792  97.4473 177.9553 0011035 272.7275  87.2687 15.02481398351109
CSIM
1 43793U 18099AM  25129.78187980  .00142776  00000-0  14782-2 0  9991
2 43793  97.4845 205.5608 0007767 218.8729 141.1972 15.64213041352816
JO-97
1 43803U 18099AX  25129.12667504  .00013165  00000-0  61168-3 0  9996
2 43803  97.4687 188.4973 0006276 246.0355 114.0223 15.20102454351991
Suomi 100
1 43804U 18099AY  25129.68494112  .00009860  00000-0  49038-3 0  9990
2 43804  97.4756 188.4319 0011009 250.7773 109.2270 15.17778620352011
ISAT
1 43879U 18111D   25129.28424567  .00023234  00000-0  83289-3 0  9997
2 43879  97.5982  43.0122 0006986 321.2645  38.8092 15.28709610348911
UWE-4
1 43880U 18111E   25129.18522329  .00018168  00000-0  72920-3 0  9993
2 43880  97.5924  41.6021 0010857 330.6967  29.3660 15.24981719348840
Sparrow
1 43881U 18111F   25129.74842323  .00021741  00000-0  75247-3 0  9991
2 43881  97.6121  46.2473 0006842   9.3374 350.7991 15.29873373347077
